Regional Weather Roundup
Issued by NWS

Home | Current Version | Previous Version | Graphics & Text | Print | Product List | Glossary On
Versions: 1 2 3 4 5 6 7 8 9 10 11 12 13 14 15 16 17 18 19 20 21 22 23 24 25 26 27 28 29 30 31 32 33 34 35 36 37 38 39 40 41 42 43 44 45 46 47 48 49 50
000
ASUS43 KOAX 242110
RWRNE

WEATHER ROUNDUP FOR NEBRASKA
NATIONAL WEATHER SERVICE OMAHA NE
300 PM CST SAT FEB 24 2018

NOTES: SATELLITE DATA IS BEING USED TO AUGMENT CLOUD COVER ABOVE
       12000 FEET.
       "FAIR" INDICATES FEW OR NO CLOUDS BELOW 12,000 FEET WITH NO
       SIGNIFICANT WEATHER AND/OR OBSTRUCTIONS TO VISIBILITY.


NEZ001>004-019>022-054>056-242200-
NEBRASKA PANHANDLE

CITY           SKY/WX    TMP DP  RH WIND       PRES   REMARKS
SCOTTSBLUFF    MOSUNNY   31  11  43 NW28G39   29.74S WCI  17
ALLIANCE       SUNNY     27  16  63 NW29      29.70S WCI  11
CHADRON        MOSUNNY   25  16  68 NW18      29.75R WCI  11
GORDON         FAIR      27  13  56 W13       29.69S WCI  16
KIMBALL        SUNNY     27  14  59 NW32G41   29.73S HAZE    WCI  10
SIDNEY         SUNNY     33  10  38 NW32G49   29.74R WCI  19
$$

NEZ057>060-069>072-079>082-242200-
SOUTHWEST NEBRASKA

CITY           SKY/WX    TMP DP  RH WIND       PRES   REMARKS
NORTH PLATTE   SUNNY     33  18  53 NW24G30   29.71S WCI  20
IMPERIAL       SUNNY     36  14  40 NW25G36   29.73S WCI  24
LEXINGTON      SUNNY     37  27  66 W16G22    29.71F WCI  27
MCCOOK         SUNNY     38  19  46 W24G36    29.74F WCI  27
OGALLALA       SUNNY     34  17  49 NW28G35   29.73S HAZE    WCI  20
$$

NEZ005>010-023>029-035>040-094-242200-
NORTH CENTRAL NEBRASKA

CITY           SKY/WX    TMP DP  RH WIND       PRES   REMARKS
VALENTINE      CLOUDY    29  21  72 NW20G28   29.65R WCI  16
AINSWORTH      CLOUDY    31  24  76 W15       29.62S WCI  20
BROKEN BOW     SUNNY     31  23  72 W14       29.66F WCI  21
O`NEILL        CLOUDY    28  23  83 SW10      29.65F WCI  18
ORD            PTSUNNY   31  24  75 W17       29.67F WCI  19
THEDFORD       SUNNY     32  19  59 NW21G31   29.66S WCI  20
$$

NEZ041-046>049-061>064-073>077-083>087-242200-
SOUTH CENTRAL NEBRASKA

CITY           SKY/WX    TMP DP  RH WIND       PRES   REMARKS
GRAND ISLAND   CLOUDY    29  25  85 SW10      29.72F WCI  20
AURORA         CLOUDY    27  24  89 SW8       29.72F WCI  18
HASTINGS       CLOUDY    29  26  89 SW8       29.72F WCI  21
HEBRON         CLOUDY    30  27  89 W9        29.76F WCI  22
HOLDREGE       PTSUNNY   35  27  72 W15       29.72S WCI  26
KEARNEY        PTSUNNY   34  26  72 W14       29.72F WCI  25
YORK           PTSUNNY   27  27 100 CALM      29.73F
$$

NEZ011>018-030>034-042>045-242200-
NORTHEAST NEBRASKA

CITY           SKY/WX    TMP DP  RH WIND       PRES   REMARKS
NORFOLK        CLOUDY    24  20  84 SW12      29.67F WCI  13
ALBION         LGT SNOW  27  25  91 W9        29.69F WCI  18
BLAIR          LGT SNOW  29  27  92 W5        29.70F WCI  23
COLUMBUS       FLURRIES  27  21  78 SW7       29.72F WCI  19
FREMONT        CLOUDY    28  26  91 W5        29.73F WCI  23
TEKAMAH        LGT SNOW  26  24  92 CALM      29.72F FOG
WAYNE          CLOUDY    24  23  96 S5        29.69F WCI  18
$$

NEZ050>053-065>068-078-088>093-242200-
SOUTHEAST NEBRASKA

CITY           SKY/WX    TMP DP  RH WIND       PRES   REMARKS
LINCOLN        CLOUDY    28  25  88 W8        29.75F WCI  20
OMAHA EPPLEY   LGT SNOW  30  27  88 N3        29.72F FOG
BEATRICE       CLOUDY    30  29  94 W8        29.73F WCI  22
FALLS CITY     CLOUDY    31  30  96 NW13      29.72R FOG     WCI  21
NEBRASKA CITY  CLOUDY    30  30 100 NW7       29.71F FOG     WCI  23
PLATTSMOUTH    CLOUDY    29  29  99 W8        29.70F FOG     WCI  21
$$

NEZ044-045-051>053-067-242200-
OMAHA AREA

CITY           SKY/WX    TMP DP  RH WIND       PRES   REMARKS
OMAHA EPPLEY   LGT SNOW  30  27  88 N3        29.72F FOG
BLAIR          LGT SNOW  29  27  92 W5        29.70F WCI  23
FREMONT        CLOUDY    28  26  91 W5        29.73F WCI  23
MILLARD        MIX PCPN  30  28  90 W6        29.73F WCI  24
OFFUTT AFB     FLURRIES  29  28  93 W7        29.71F WCI  22
PLATTSMOUTH    CLOUDY    29  29  99 W8        29.70F FOG     WCI  21
WAHOO          CLOUDY    28  24  87 W5        29.73F WCI  23
$$




USA.gov is the U.S. government's official web portal to all federal, state and local government web resources and services.